Satellite: NOAA-11
Catalog number: 19531
Epoch time:      09018.28872595
Element set:     480
Inclination:      098.7889 deg
RA of node:       110.5475 deg
Eccentricity:    0.0011546
Arg of perigee:   172.4305 deg
Mean anomaly:     187.7026 deg
Mean motion:   14.14887699 rev/day
Decay rate:       1.79e-06 rev/day^2
Epoch rev:            4832
Checksum:              340

Satellite: NOAA-12
Catalog number: 21263
Epoch time:      09018.53898829
Element set:     981
Inclination:      098.7722 deg
RA of node:       026.5285 deg
Eccentricity:    0.0011688
Arg of perigee:   218.4411 deg
Mean anomaly:     141.5936 deg
Mean motion:   14.25563372 rev/day
Decay rate:        2.8e-07 rev/day^2
Epoch rev:           91907
Checksum:              327

Satellite: MET-3/5
Catalog number: 21655
Epoch time:      09018.56600105
Element set:     544
Inclination:      082.5520 deg
RA of node:       312.2081 deg
Eccentricity:    0.0012584
Arg of perigee:   191.7021 deg
Mean anomaly:     168.3810 deg
Mean motion:   13.17017677 rev/day
Decay rate:        5.1e-07 rev/day^2
Epoch rev:           83793
Checksum:              275

Satellite: MET-2/21
Catalog number: 22782
Epoch time:      09017.83820356
Element set:    0357
Inclination:      082.5503 deg
RA of node:       301.2837 deg
Eccentricity:    0.0023793
Arg of perigee:   050.5898 deg
Mean anomaly:     309.7363 deg
Mean motion:   13.83634571 rev/day
Decay rate:        7.1e-07 rev/day^2
Epoch rev:           77681
Checksum:              319

Satellite: OKEAN-4
Catalog number: 23317
Epoch time:      09017.80650081
Element set:     803
Inclination:      082.5396 deg
RA of node:       114.8262 deg
Eccentricity:    0.0023222
Arg of perigee:   136.8875 deg
Mean anomaly:     223.4176 deg
Mean motion:   14.82668272 rev/day
Decay rate:       1.83e-06 rev/day^2
Epoch rev:           77008
Checksum:              297

Satellite: NOAA-14
Catalog number: 23455
Epoch time:      09018.48629251
Element set:     481
Inclination:      098.9242 deg
RA of node:       096.6107 deg
Eccentricity:    0.0008726
Arg of perigee:   252.9084 deg
Mean anomaly:     107.1160 deg
Mean motion:   14.13755941 rev/day
Decay rate:        6.8e-07 rev/day^2
Epoch rev:           72477
Checksum:              316

Satellite: NOAA-15
Catalog number: 25338
Epoch time:      09018.32792462
Element set:     779
Inclination:      098.5737 deg
RA of node:       010.9138 deg
Eccentricity:    0.0011336
Arg of perigee:   131.6625 deg
Mean anomaly:     228.5527 deg
Mean motion:   14.24741681 rev/day
Decay rate:       -2.4e-07 rev/day^2
Epoch rev:           55543
Checksum:              311

Satellite: RESURS
Catalog number: 25394
Epoch time:      09018.51502767
Element set:     121
Inclination:      098.3597 deg
RA of node:       058.3399 deg
Eccentricity:    0.0001138
Arg of perigee:   328.3701 deg
Mean anomaly:     031.7411 deg
Mean motion:   14.24179210 rev/day
Decay rate:       -1.0e-08 rev/day^2
Epoch rev:           54709
Checksum:              279

Satellite: FENGYUN1
Catalog number: 25730
Epoch time:      09018.90315892
Element set:     665
Inclination:      098.7432 deg
RA of node:       353.6289 deg
Eccentricity:    0.0022299
Arg of perigee:   280.6234 deg
Mean anomaly:     079.2425 deg
Mean motion:   14.07919841 rev/day
Decay rate:       1.64e-06 rev/day^2
Epoch rev:           49931
Checksum:              327

Satellite: OKEAN-0
Catalog number: 25860
Epoch time:      09018.51146859
Element set:     577
Inclination:      097.7708 deg
RA of node:       005.7741 deg
Eccentricity:    0.0000866
Arg of perigee:   039.4889 deg
Mean anomaly:     320.6375 deg
Mean motion:   14.73554330 rev/day
Decay rate:        1.1e-07 rev/day^2
Epoch rev:           51110
Checksum:              302

Satellite: NOAA-16
Catalog number: 26536
Epoch time:      09018.33506641
Element set:     255
Inclination:      099.1733 deg
RA of node:       018.4051 deg
Eccentricity:    0.0010272
Arg of perigee:   345.8163 deg
Mean anomaly:     014.2750 deg
Mean motion:   14.12508927 rev/day
Decay rate:       2.75e-06 rev/day^2
Epoch rev:           42914
Checksum:              282

Satellite: NOAA-17
Catalog number: 27453
Epoch time:      09018.48275663
Element set:     268
Inclination:      098.5071 deg
RA of node:       082.5672 deg
Eccentricity:    0.0011579
Arg of perigee:   196.2978 deg
Mean anomaly:     163.7841 deg
Mean motion:   14.24034858 rev/day
Decay rate:       2.05e-06 rev/day^2
Epoch rev:           34144
Checksum:              331

Satellite: NOAA-18
Catalog number: 28654
Epoch time:      09018.52163529
Element set:     753
Inclination:      098.8930 deg
RA of node:       323.0441 deg
Eccentricity:    0.0015133
Arg of perigee:   067.0627 deg
Mean anomaly:     293.2105 deg
Mean motion:   14.11227539 rev/day
Decay rate:       2.02e-06 rev/day^2
Epoch rev:           18884
Checksum:              295

/EX
SB KEPS @ AMSAT  $ORB09018.M
Orbital Elements  09018.MISC

HR AMSAT ORBITAL ELEMENTS FOR MANNED AND MISCELLANEOUS SATELLITES
FROM WA5QGD FORT WORTH,TX January 18, 2009
Send Subscribe/unsubscribe to KEPS at 
http://www.amsat.org/mailman/listinfo/keps
BID: ORB09018.M
TO ALL RADIO AMATEURS BT

Satellite: HUBBLE
Catalog number: 20580
Epoch time:      09017.33036055
Element set:    0318
Inclination:      028.4705 deg
RA of node:       006.4606 deg
Eccentricity:    0.0003834
Arg of perigee:   140.3851 deg
Mean anomaly:     219.7016 deg
Mean motion:   15.00447313 rev/day
Decay rate:       2.91e-06 rev/day^2
Epoch rev:           82717
Checksum:              257

Satellite: PO-34
Catalog number: 25520
Epoch time:      09018.55332248
Element set:     166
Inclination:      028.4598 deg
RA of node:       176.8338 deg
Eccentricity:    0.0005558
Arg of perigee:   114.8205 deg
Mean anomaly:     245.2972 deg
Mean motion:   15.17285285 rev/day
Decay rate:       3.82e-06 rev/day^2
Epoch rev:           56590
Checksum:              323

Satellite: ISS
Catalog number: 25544
Epoch time:      09018.53673810
Element set:      97
Inclination:      051.6434 deg
RA of node:       352.9819 deg
Eccentricity:    0.0007813
Arg of perigee:   279.1391 deg
Mean anomaly:     184.3598 deg
Mean motion:   15.70422260 rev/day
Decay rate:     1.1337e-04 rev/day^2
Epoch rev:           58241
Checksum:              307

Satellite: CO-58
Catalog number: 28895
Epoch time:      09015.68742708
Element set:    0211
Inclination:      098.0781 deg
RA of node:       270.4088 deg
Eccentricity:    0.0019025
Arg of perigee:   105.0981 deg
Mean anomaly:     255.2372 deg
Mean motion:   14.59732830 rev/day
Decay rate:       -4.6e-07 rev/day^2
Epoch rev:           17148
Checksum:              320

Satellite: FALCON
Catalog number: 30776
Epoch time:      09017.92635552
Element set:    0486
Inclination:      035.4348 deg
RA of node:       291.0045 deg
Eccentricity:    0.0001142
Arg of perigee:   018.0468 deg
Mean anomaly:     342.0289 deg
Mean motion:   15.03149576 rev/day
Decay rate:       3.31e-06 rev/day^2
Epoch rev:           10247
Checksum:              277

Satellite: MAST
Catalog number: 31126
Epoch time:      09018.64994876
Element set:     507
Inclination:      098.0109 deg
RA of node:       080.1461 deg
Eccentricity:    0.0095195
Arg of perigee:   024.5212 deg
Mean anomaly:     336.0460 deg
Mean motion:   14.53471985 rev/day
Decay rate:       -5.8e-07 rev/day^2
Epoch rev:            9331
Checksum:              297

Satellite: CAPE1
Catalog number: 31130
Epoch time:      09018.81614123
Element set:     506
Inclination:      098.0134 deg
RA of node:       078.8245 deg
Eccentricity:    0.0103451
Arg of perigee:   028.4494 deg
Mean anomaly:     332.2279 deg
Mean motion:   14.52025837 rev/day
Decay rate:      -1.26e-06 rev/day^2
Epoch rev:            9301
Checksum:              265

Satellite: COMPASS
Catalog number: 32787
Epoch time:      09018.37243664
Element set:     256
Inclination:      097.9641 deg
RA of node:       083.3277 deg
Eccentricity:    0.0016217
Arg of perigee:   155.5163 deg
Mean anomaly:     204.6826 deg
Mean motion:   14.81534701 rev/day
Decay rate:       2.37e-06 rev/day^2
Epoch rev:            3926
Checksum:              305

Satellite: AAUSAT2
Catalog number: 32788
Epoch time:      09017.87978082
Element set:    0262
Inclination:      097.9623 deg
RA of node:       082.8722 deg
Eccentricity:    0.0015765
Arg of perigee:   158.0150 deg
Mean anomaly:     202.1713 deg
Mean motion:   14.81651036 rev/day
Decay rate:       1.92e-06 rev/day^2
Epoch rev:           03919
Checksum:              309

Satellite: DO-64
Catalog number: 32789
Epoch time:      09017.89758837
Element set:     268
Inclination:      097.9678 deg
RA of node:       082.9708 deg
Eccentricity:    0.0016180
Arg of perigee:   156.7560 deg
Mean anomaly:     203.4382 deg
Mean motion:   14.81592137 rev/day
Decay rate:       4.70e-06 rev/day^2
Epoch rev:            3919
Checksum:              359

Satellite: CO-66
Catalog number: 32791
Epoch time:      09017.31794123
Element set:    0250
Inclination:      097.9664 deg
RA of node:       082.3069 deg
Eccentricity:    0.0016497
Arg of perigee:   157.1423 deg
Mean anomaly:     203.0524 deg
Mean motion:   14.81374794 rev/day
Decay rate:        5.7e-07 rev/day^2
Epoch rev:           03907
Checksum:              313

Satellite: RS-30
Catalog number: 32953
Epoch time:      09017.99597222
Element set:     210
Inclination:      082.5032 deg
RA of node:       350.0052 deg
Eccentricity:    0.0019406
Arg of perigee:   142.5467 deg
Mean anomaly:     217.6967 deg
Mean motion:   12.42999453 rev/day
Decay rate:        1.0e-07 rev/day^2
Epoch rev:            2973
Checksum:              293

/EX






More information about the Keps mailing list